Flag for U.S.A. Weather past 2 weeks in Allentown, Pennsylvania, U.S.A.

Now
35 °F

Passing clouds.


Feels Like: 26 °F
Forecast: 28 / 46 °F
Wind: 14 mph from Northwest

Location: Lehigh Valley International Airport


UV Index: 5 (Moderate)

Visibility: 7 mi


Pressure: 29.98 "Hg

Humidity: 70%

Dew point: 26 °F

Location of AllentownLocation

Historic Weather in Allentown

°F

Allentown temperature yesterday

Maximum temperature yesterday: 67 °F (at 8:51 AM)
Minimum temperature yesterday: 34 °F (at 9:58 PM)
Average temperature yesterday: 57 °F

Past Weeks' High & Low Weather Summary

 TemperatureHumidityPressure
High81 °F (Apr 13, 2:51 PM)100% (Apr 8, 7:04 AM)30.24 "Hg (Apr 8, 7:04 AM)
Low28 °F (Apr 10, 5:51 AM)18% (Apr 3, 4:51 PM)29.45 "Hg (Apr 8, 9:03 AM)
Average52 °F62%29.96 "Hg
* Reported Mar 31 10:51 PM — Apr 15 10:51 PM, Allentown, Weather by CustomWeather, © 2014

Note: Actual official high and low records may vary slightly from our data, if they occured in-between our weather recording intervals... More about our weather records

Advertising

Historic Weather Conditions — Data for Previous 24 hours

 ConditionsComfort  
Time TempWeatherWind HumidityBarometerVisibility
10:51 PM
Apr 15
34 °FMostly cloudy.12 mph85%29.96 "Hg9 mi
9:58 PM34 °FLight snow. Fog.15 mph87%29.91 "Hg1 mi
9:00 PM37 °FLight rain. Overcast.21 mph81%29.89 "Hg10 mi
6:51 PM42 °FLight rain. Overcast.13 mph79%29.79 "Hg10 mi
5:51 PM45 °FLight rain. Cloudy.13 mph80%29.73 "Hg7 mi
4:51 PM47 °FRain. Mostly cloudy.10 mph83%29.69 "Hg3 mi
3:51 PM51 °FLight rain. Mostly cloudy.16 mph77%29.61 "Hg7 mi
2:51 PM55 °FRain. Cloudy.21 mph83%29.54 "Hg2 mi
2:03 PM63 °FLight rain. Fog.5 mph94%29.52 "Hg2 mi
1:51 PM63 °FHeavy rain. Fog.No wind93%29.52 "Hg1 mi
12:51 PM64 °FLight rain. Mostly cloudy.6 mph87%29.52 "Hg10 mi
11:51 AM65 °FLight rain. Fog.12 mph87%29.57 "Hg6 mi
10:55 AM63 °FHeavy rain. Fog.24 mph94%29.59 "Hg1 mi
9:51 AM66 °FRain. Fog.17 mph87%29.55 "Hg3 mi
8:51 AM67 °FMostly cloudy.16 mph81%29.60 "Hg10 mi
7:51 AM65 °FLight rain. Fog.14 mph87%29.63 "Hg6 mi
6:51 AM64 °FLight rain. Overcast.14 mph87%29.67 "Hg10 mi
5:51 AM64 °FLight rain. Overcast.14 mph84%29.69 "Hg10 mi
5:04 AM63 °FMostly cloudy.8 mph83%29.71 "Hg10 mi
4:51 AM63 °FMostly cloudy.12 mph84%29.71 "Hg10 mi
3:51 AM64 °FOvercast.14 mph75%29.74 "Hg10 mi
2:51 AM64 °FLight rain. Overcast.8 mph78%29.76 "Hg9 mi
1:51 AM66 °FPassing clouds.14 mph68%29.77 "Hg10 mi
12:51 AM66 °FPassing clouds.10 mph68%29.79 "Hg10 mi
Weather by CustomWeather, © 2014

See weather overview